Simultaneous Nadir Overpasses (SNOs) Predictions

Prediction of SNOs between METOP-B and NOAA-19 Satellite Orbit:

Table of predicted SNOs for the next 14.0 days since TLE Epoch: 12/26/2014
Index Date (METOP-B) Time (METOP-B) Lat,Lon (METOP-B) SZA (METOP-B ) Date (NOAA-19) Time (NOAA-19) Lat,Lon (NOAA-19) SZA (NOAA-19 ) Distance(km) Time Diff (sec)
1 12/26/2014 17:29:56 -74.41, 93.52 82.29 12/26/2014 17:29:41 -74.40, 93.63 82.31 3.56 15
2 12/26/2014 18:20:36 74.40, -99.19 97.69 12/26/2014 18:20:40 74.40, -99.11 97.69 2.51 4
3 12/26/2014 19:11:18 -74.40, 68.14 82.31 12/26/2014 19:11:44 -74.40, 68.13 82.31 0.17 26
4 12/26/2014 20:01:57 74.38,-124.58 97.67 12/26/2014 20:02:42 74.39,-124.60 97.69 1.75 45
5 12/26/2014 20:52:39 -74.38, 42.75 82.33 12/26/2014 20:53:45 -74.34, 42.76 82.37 3.82 66
6 12/26/2014 21:43:28 73.92,-151.07 97.23 12/26/2014 21:44:36 73.95,-148.97 97.23 64.84 68
7 01/06/2015 00:08:21 -74.85, -4.92 82.65 01/06/2015 00:07:11 -74.86, -6.84 82.59 55.83 70
8 01/06/2015 00:59:08 74.49, 161.44 97.01 01/06/2015 00:58:05 74.51, 161.39 97.04 2.61 63
9 01/06/2015 01:49:50 -74.49, -31.23 82.99 01/06/2015 01:49:06 -74.48, -31.28 83.01 2.36 44
10 01/06/2015 02:40:30 74.47, 136.06 96.99 01/06/2015 02:40:07 74.46, 136.01 96.98 2.09 23
11 01/06/2015 03:31:13 -74.43, -56.74 83.06 01/06/2015 03:31:08 -74.43, -56.65 83.07 2.76 5
12 01/06/2015 04:21:53 74.41, 110.54 96.92 01/06/2015 04:22:09 74.41, 110.64 96.92 3.01 16
13 01/06/2015 05:12:35 -74.41, -82.13
